Terminal Aerodrome Forecast
Issued by NWS

Home | Current Version | Previous Version | Text Only | Print | Product List | Glossary On
Versions: 1 2 3 4 5 6 7 8 9 10 11 12 13 14 15 16 17 18 19 20 21 22 23 24 25 26 27 28 29 30 31 32 33 34 35 36 37
000
FTUS45 KGJT 251741
TAFEGE
TAF
KEGE 251741Z 2518/2618 25010G18KT P6SM -RA SCT030 OVC050
     FM252100 24008KT P6SM VCTS SCT060CB
      TEMPO 2521/2601 VRB15G30KT 5SM -TSRA SCT030 BKN040CB
     FM260400 09004KT 5SM -RA BKN030
     FM261200 12004KT P6SM OVC060=

USA.gov is the U.S. government's official web portal to all federal, state and local government web resources and services.